Fort Campbell, KY

4:33 AM CDT on June 24, 2017 (GMT -0500)
Campbell Army Air Field

Weather History for KHOP - August, 2014

Change the Weather History Date:

Friday, August 8, 2014

  Actual Average Record
Temperature  
Mean Temperature 78 °F -  
Max Temperature 87 °F 85 °F 101 °F (2007)
Min Temperature 70 °F 66 °F 59 °F (2002)
Cooling Degree Days 14    
Growing Degree Days 28 (Base 50)    
Moisture  
Dew Point 73 °F    
Average Humidity 84    
Maximum Humidity 100    
Minimum Humidity 52    
Precipitation  
Precipitation 0.03 in - - ()
Sea Level Pressure  
Sea Level Pressure 29.94 in    
Wind  
Wind Speed 7 mph (SSW)    
Max Wind Speed 16 mph    
Max Gust Speed -    
Visibility 10 miles    
Events Rain    
Averages and records for this station are not official NWS values.
T = Trace of Precipitation, MM = Missing Value Source: NWS Daily Summary

Daily Weather History Graph

Daily Weather History Graph

Search for Another Location

Airport or City:

Trip Planner

Search our weather history database for the weather conditions in past years. The results will help you decide how hot, cold, wet, or windy it might be!

Date:

Astronomy

Aug. 08, 2014 Rise Set
Actual Time 6:01 AM CDT 7:49 PM CDT
Civil Twilight 5:33 AM CDT 8:16 PM CDT
Nautical Twilight 4:59 AM CDT 8:50 PM CDT
Astronomical Twilight 4:23 AM CDT 9:26 PM CDT
Moon 5:59 PM CDT (8/8) 3:34 AM CDT (8/8)
Length of Visible Light 14h 43m
Length of Day
13h 47m
Waxing Gibbous, 94% of the Moon is Illuminated
Aug 8
Waxing Gibbous
Aug 10
Full
Aug 17
Last Quarter
Aug 25
New
Sep 2
First Quarter

Hourly Weather History & Observations

Time (CDT) Temp. Heat Index Dew Point Humidity Pressure Visibility Wind Dir Wind Speed Gust Speed Precip Events Conditions
12:58 AM 72.0 °F - 72.0 °F 100% 29.94 in 10.0 mi SE 3.5 mph - N/A   Mostly Cloudy
1:58 AM 71.8 °F - 71.8 °F 100% 29.94 in 10.0 mi SSE 5.8 mph - N/A   Overcast
2:58 AM 71.6 °F - 71.6 °F 100% 29.94 in 10.0 mi SSE 4.6 mph - N/A   Mostly Cloudy
3:58 AM 71.6 °F - 71.6 °F 100% 29.95 in 10.0 mi SE 1.2 mph - N/A   Overcast
4:58 AM 71.2 °F - 71.2 °F 100% 29.95 in 10.0 mi ESE 3.5 mph - N/A   Mostly Cloudy
5:58 AM 71.6 °F - 71.6 °F 100% 29.96 in 9.0 mi SE 5.8 mph - N/A   Partly Cloudy
6:58 AM 70.9 °F - 70.9 °F 100% 29.96 in 7.0 mi SE 2.3 mph - N/A   Clear
7:58 AM 74.5 °F - 74.5 °F 100% 29.97 in 10.0 mi South 5.8 mph - N/A   Partly Cloudy
8:58 AM 77.5 °F - 73.0 °F 86% 29.97 in 10.0 mi SSW 10.4 mph - N/A   Scattered Clouds
9:58 AM 78.8 °F - 72.7 °F 81% 29.98 in 10.0 mi SSW 16.1 mph - N/A   Overcast
10:30 AM 77.0 °F - 73.4 °F 89% 29.99 in 4.0 mi SW 11.5 mph - N/A Rain Light Rain
10:42 AM 75.2 °F - 75.2 °F 100% 29.98 in 10.0 mi SSW 10.4 mph - N/A   Partly Cloudy
10:58 AM 75.0 °F - 75.0 °F 100% 29.96 in 10.0 mi SSW 5.8 mph - 0.03 in   Partly Cloudy
11:28 AM 75.2 °F - 75.2 °F 100% 29.98 in 10.0 mi SW 12.7 mph - N/A   Light Drizzle
11:40 AM 77.0 °F - 77.0 °F 100% 29.97 in 10.0 mi SW 11.5 mph - N/A   Scattered Clouds
11:58 AM 78.3 °F - 77.4 °F 97% 29.96 in 10.0 mi WSW 8.1 mph - 0.00 in   Mostly Cloudy
12:18 PM 82.4 °F 89.5 °F 75.2 °F 79% 29.96 in 10.0 mi SW 13.8 mph - N/A   Mostly Cloudy
12:43 PM 80.6 °F 85.4 °F 73.4 °F 79% 29.96 in 10.0 mi SW 12.7 mph - N/A   Mostly Cloudy
12:58 PM 82.4 °F 88.2 °F 73.4 °F 74% 29.94 in 10.0 mi SW 15.0 mph - N/A   Mostly Cloudy
1:58 PM 85.8 °F 90.8 °F 70.7 °F 60% 29.92 in 10.0 mi South 12.7 mph - N/A   Clear
2:58 PM 85.3 °F 89.8 °F 70.0 °F 60% 29.91 in 10.0 mi SSW 12.7 mph - N/A   Mostly Cloudy
3:58 PM 87.6 °F 91.1 °F 68.0 °F 52% 29.90 in 10.0 mi WSW 11.5 mph - N/A   Clear
4:58 PM 86.2 °F 91.8 °F 71.4 °F 61% 29.91 in 10.0 mi SSW 9.2 mph - N/A   Scattered Clouds
5:58 PM 85.3 °F 91.5 °F 72.1 °F 65% 29.89 in 10.0 mi SW 10.4 mph - N/A   Mostly Cloudy
6:18 PM 86.0 °F 93.4 °F 73.4 °F 66% 29.89 in 10.0 mi SSW 10.4 mph - N/A   Mostly Cloudy
6:34 PM 84.2 °F 90.9 °F 73.4 °F 70% 29.89 in 10.0 mi SSW 8.1 mph - N/A   Scattered Clouds
6:58 PM 83.1 °F 89.2 °F 73.2 °F 72% 29.89 in 10.0 mi South 5.8 mph - N/A   Partly Cloudy
7:27 PM 82.4 °F 88.2 °F 73.4 °F 74% 29.90 in 10.0 mi South 5.8 mph - N/A   Mostly Cloudy
7:29 PM 82.4 °F 88.2 °F 73.4 °F 74% 29.90 in 10.0 mi South 5.8 mph - N/A   Mostly Cloudy
7:58 PM 80.6 °F 85.4 °F 73.4 °F 79% 29.90 in 10.0 mi South 5.8 mph - N/A   Clear
8:58 PM 79.0 °F - 72.5 °F 80% 29.92 in 10.0 mi South 5.8 mph - N/A   Clear
11:33 PM 73.4 °F - 73.4 °F 100% 29.95 in 10.0 mi SSW 8.1 mph - N/A   Mostly Cloudy